Weather History for Mandan, ND

Change the Weather History Date:

Wednesday, June 19, 2013

  Actual Average (KBIS) Record (KBIS)
Temperature  
Mean Temperature 72 °F 66 °F  
Max Temperature 84 °F 78 °F 97 °F (1988)
Min Temperature 59 °F 53 °F 39 °F (2004)
Degree Days  
Heating Degree Days 0 2  
Month to date heating degree days 74  
Since 1 June heating degree days 74  
Since 1 July heating degree days 8539  
Cooling Degree Days 6 3  
Month to date cooling degree days 39  
Year to date cooling degree days 56  
Since 1 June cooling degree days 39  
Growing Degree Days 22 (Base 50)    
Moisture  
Dew Point 60 °F    
Average Humidity 69    
Maximum Humidity 100    
Minimum Humidity 42    
Precipitation  
Precipitation 0.00 in 0.12 in 1.86 in (1890)
Month to date precipitation 2.01  
Year to date precipitation 7.48  
Snow  
Snow 0.00 in 0.00 in 0.00 in (2002)
Month to date snowfall 0.0  
Since 1 June snowfall 0.0  
Since 1 July snowfall 51.2  
Snow Depth -    
Sea Level Pressure  
Sea Level Pressure 29.86 in    
Wind  
Wind Speed 11 mph (ESE)    
Max Wind Speed 28 mph    
Max Gust Speed 33 mph    
Visibility 10 miles    
Events Rain    
T = Trace of Precipitation, MM = Missing Value Source: NWS Daily Summary

Daily Weather History Graph

Daily Weather History Graph

Search for Another Location

Airport:

Trip Planner

Search our weather history database for the weather conditions in past years. The results will help you decide how hot, cold, wet, or windy it might be!

Date:

Astronomy

Jun. 19, 2013 Rise Set
Actual Time 5:49 AM CDT 9:40 PM CDT
Civil Twilight 5:09 AM CDT 10:20 PM CDT
Nautical Twilight 4:15 AM CDT 11:14 PM CDT
Astronomical Twilight 2:55 AM CDT 12:34 AM CDT
Moon 5:25 PM CDT (6/19) 2:47 AM CDT (6/19)
Length of Visible Light 17h 10m
Length of Day
15h 51m
Waxing Gibbous, 80% of the Moon is Illuminated
Jun 19
Waxing Gibbous
Jun 23
Full
Jun 29
Last Quarter
Jul 8
New
Jul 15
First Quarter

Hourly Weather History & Observations

Time (CDT) Temp. Heat Index Dew Point Humidity Pressure Visibility Wind Dir Wind Speed Gust Speed Precip Events Conditions
12:15 AM 64.4 °F - 59.0 °F 83% 29.96 in - ESE 6.9 mph - N/A   Clear
12:35 AM 62.6 °F - 59.0 °F 88% 29.95 in - ESE 8.1 mph - N/A   Unknown
12:55 AM 62.6 °F - 59.0 °F 88% 29.95 in - ESE 6.9 mph - N/A   Unknown
1:15 AM 62.6 °F - 59.0 °F 88% 29.95 in - ESE 6.9 mph - N/A   Unknown
1:35 AM 60.8 °F - 59.0 °F 94% 29.94 in - ESE 6.9 mph - N/A   Unknown
1:55 AM 60.8 °F - 59.0 °F 94% 29.94 in - East 8.1 mph - N/A   Unknown
2:15 AM 60.8 °F - 59.0 °F 94% 29.93 in - ESE 9.2 mph - N/A   Unknown
2:35 AM 60.8 °F - 59.0 °F 94% 29.93 in - ESE 8.1 mph - N/A   Unknown
2:55 AM 59.0 °F - 59.0 °F 100% 29.93 in - SE 6.9 mph - N/A   Unknown
3:15 AM 59.0 °F - 59.0 °F 100% 29.93 in - SE 8.1 mph - N/A   Unknown
3:35 AM 59.0 °F - 59.0 °F 100% 29.93 in - East 6.9 mph - N/A   Unknown
3:55 AM 60.8 °F - 59.0 °F 94% 29.93 in - East 9.2 mph - N/A   Unknown
4:15 AM 59.0 °F - 59.0 °F 100% 29.93 in - East 9.2 mph - N/A   Unknown
4:35 AM 59.0 °F - 59.0 °F 100% 29.93 in - East 9.2 mph - N/A   Unknown
4:55 AM 59.0 °F - 57.2 °F 94% 29.92 in - East 10.4 mph - N/A   Unknown
5:15 AM 59.0 °F - 57.2 °F 94% 29.92 in - East 9.2 mph - N/A   Unknown
5:35 AM 59.0 °F - 57.2 °F 94% 29.91 in - East 9.2 mph - N/A   Unknown
5:55 AM 59.0 °F - 57.2 °F 94% 29.91 in - East 8.1 mph - N/A   Unknown
6:15 AM 59.0 °F - 57.2 °F 94% 29.91 in - East 9.2 mph - N/A   Unknown
6:35 AM 59.0 °F - 57.2 °F 94% 29.91 in - East 8.1 mph - N/A   Unknown
6:55 AM 59.0 °F - 57.2 °F 94% 29.91 in - East 9.2 mph - N/A   Unknown
7:35 AM 62.6 °F - 57.2 °F 82% 29.90 in - East 6.9 mph - N/A   Clear
7:55 AM 64.4 °F - 59.0 °F 83% 29.90 in - ESE 5.8 mph - N/A   Clear
8:15 AM 66.2 °F - 60.8 °F 83% 29.89 in - SE 6.9 mph - N/A   Clear
8:35 AM 66.2 °F - 60.8 °F 83% 29.89 in - ESE 6.9 mph - N/A   Clear
8:55 AM 68.0 °F - 60.8 °F 78% 29.89 in - ESE 9.2 mph - N/A   Clear
9:15 AM 68.0 °F - 60.8 °F 78% 29.89 in - ESE 10.4 mph - N/A   Clear
9:35 AM 69.8 °F - 62.6 °F 78% 29.89 in - East 10.4 mph - N/A   Clear
9:55 AM 71.6 °F - 62.6 °F 73% 29.89 in - ESE 9.2 mph - N/A   Clear
10:15 AM 71.6 °F - 62.6 °F 73% 29.89 in - ESE 9.2 mph - N/A   Clear
10:35 AM 73.4 °F - 64.4 °F 73% 29.88 in - SE 13.8 mph - N/A   Clear
10:55 AM 73.4 °F - 64.4 °F 73% 29.87 in - ESE 10.4 mph - N/A   Clear
11:15 AM 75.2 °F - 64.4 °F 69% 29.87 in 10.0 mi SE 15.0 mph 19.6 mph N/A   Clear
11:35 AM 77.0 °F - 64.4 °F 65% 29.87 in 10.0 mi SE 13.8 mph - N/A   Clear
11:55 AM 77.0 °F - 66.2 °F 69% 29.87 in 10.0 mi SE 12.7 mph 19.6 mph N/A   Clear
12:15 PM 80.6 °F 82.7 °F 66.2 °F 61% 29.87 in 10.0 mi SE 17.3 mph 20.7 mph N/A   Clear
12:35 PM 80.6 °F 82.7 °F 66.2 °F 61% 29.87 in 10.0 mi SE 18.4 mph 23.0 mph N/A   Clear
12:55 PM 80.6 °F 82.7 °F 66.2 °F 61% 29.86 in 10.0 mi SE 20.7 mph 27.6 mph N/A   Partly Cloudy
1:15 PM 82.4 °F 83.4 °F 62.6 °F 51% 29.86 in 10.0 mi SSE 19.6 mph 25.3 mph N/A Rain Light Rain
1:35 PM 82.4 °F 82.5 °F 59.0 °F 45% 29.86 in 10.0 mi SSE 20.7 mph 28.8 mph N/A   Clear
1:55 PM 82.4 °F 83.4 °F 62.6 °F 51% 29.85 in 10.0 mi South 18.4 mph 25.3 mph N/A   Clear
2:15 PM 82.4 °F 83.9 °F 64.4 °F 54% 29.85 in 10.0 mi SSE 23.0 mph 28.8 mph N/A   Partly Cloudy
2:35 PM 82.4 °F 83.9 °F 64.4 °F 54% 29.84 in 10.0 mi South 16.1 mph 25.3 mph N/A   Scattered Clouds
2:55 PM 84.2 °F 85.6 °F 64.4 °F 51% 29.84 in 10.0 mi SSE 18.4 mph 24.2 mph N/A   Scattered Clouds
3:15 PM 84.2 °F 85.0 °F 62.6 °F 48% 29.84 in 10.0 mi SSE 19.6 mph 26.5 mph N/A   Scattered Clouds
3:35 PM 84.2 °F 84.4 °F 60.8 °F 45% 29.83 in 10.0 mi SE 18.4 mph 24.2 mph N/A   Partly Cloudy
3:55 PM 82.4 °F 83.4 °F 62.6 °F 51% 29.83 in 10.0 mi SE 11.5 mph 24.2 mph N/A   Scattered Clouds
4:15 PM 82.4 °F 82.9 °F 60.8 °F 48% 29.82 in 10.0 mi SSE 21.9 mph 26.5 mph N/A   Scattered Clouds
4:35 PM 82.4 °F 82.5 °F 59.0 °F 45% 29.82 in 10.0 mi SSE 19.6 mph 27.6 mph N/A   Clear
4:55 PM 82.4 °F 82.5 °F 59.0 °F 45% 29.82 in 10.0 mi SSE 24.2 mph 31.1 mph N/A   Clear
5:15 PM 80.6 °F 81.1 °F 59.0 °F 48% 29.82 in 10.0 mi SSE 27.6 mph 33.4 mph N/A   Clear
5:35 PM 80.6 °F 80.8 °F 57.2 °F 45% 29.82 in 10.0 mi SE 20.7 mph 31.1 mph N/A   Clear
5:55 PM 80.6 °F 80.5 °F 55.4 °F 42% 29.82 in 10.0 mi SE 17.3 mph 27.6 mph N/A   Clear
6:15 PM 80.6 °F 80.8 °F 57.2 °F 45% 29.81 in 10.0 mi SE 20.7 mph 27.6 mph N/A   Clear
6:35 PM 80.6 °F 80.5 °F 55.4 °F 42% 29.81 in 10.0 mi SE 20.7 mph 25.3 mph N/A   Clear
6:55 PM 78.8 °F - 57.2 °F 47% 29.81 in 10.0 mi SE 17.3 mph 23.0 mph N/A   Clear
7:15 PM 78.8 °F - 55.4 °F 44% 29.80 in 10.0 mi ESE 12.7 mph 21.9 mph N/A   Clear
7:35 PM 77.0 °F - 55.4 °F 47% 29.80 in 10.0 mi SE 12.7 mph 19.6 mph N/A   Clear
7:55 PM 77.0 °F - 57.2 °F 50% 29.80 in 10.0 mi SE 13.8 mph 21.9 mph N/A   Clear
8:15 PM 77.0 °F - 57.2 °F 50% 29.80 in 10.0 mi ESE 15.0 mph 20.7 mph N/A   Clear
8:35 PM 75.2 °F - 55.4 °F 50% 29.79 in 10.0 mi ESE 13.8 mph 20.7 mph N/A   Clear
8:55 PM 75.2 °F - 55.4 °F 50% 29.79 in 10.0 mi ESE 15.0 mph 20.7 mph N/A   Clear
9:15 PM 73.4 °F - 55.4 °F 53% 29.79 in 10.0 mi ESE 13.8 mph - N/A   Clear
9:35 PM 71.6 °F - 55.4 °F 57% 29.79 in 10.0 mi East 12.7 mph - N/A   Clear
9:55 PM 71.6 °F - 55.4 °F 57% 29.80 in 10.0 mi East 11.5 mph - N/A   Clear
10:15 PM 71.6 °F - 57.2 °F 60% 29.80 in 10.0 mi East 10.4 mph - N/A   Clear
10:35 PM 71.6 °F - 57.2 °F 60% 29.80 in 10.0 mi East 12.7 mph - N/A   Scattered Clouds
10:55 PM 71.6 °F - 57.2 °F 60% 29.80 in 10.0 mi East 10.4 mph - N/A   Overcast
11:15 PM 71.6 °F - 59.0 °F 64% 29.80 in 10.0 mi East 9.2 mph - N/A   Overcast
11:35 PM 71.6 °F - 59.0 °F 64% 29.79 in 10.0 mi East 9.2 mph - N/A   Overcast
11:55 PM 68.0 °F - 60.8 °F 78% 29.79 in 10.0 mi East 8.1 mph - N/A   Overcast